Regional Weather Roundup
Issued by NWS

Home | Current Version | Previous Version | Graphics & Text | Print | Product List | Glossary On
Versions: 1 2 3 4 5 6 7 8 9 10 11 12 13 14 15 16 17 18 19 20 21 22 23 24 25 26
000
ASUS45 KSLC 180210
RWRUT

UTAH REGIONAL WEATHER ROUNDUP
NATIONAL WEATHER SERVICE SALT LAKE CITY UT
700 PM MST SAT FEB 17 2018

UTZ001>011-023>025-180300-

NORTHERN UTAH

CITY           SKY/WX    TMP DP  RH WIND       PRES   REMARKS
BRIGHAM CITY   MOCLDY    49  16  27 N3        29.86F
HILL AFB       NOT AVBL
LOGAN          MOCLDY    52  16  24 S7        29.84F
OGDEN          MOCLDY    51  15  23 S14       29.86F
SALT LAKE CITY MOCLDY    56  14  19 S16G24    29.86F
TOOELE VALLEY  MOCLDY    52  18  25 S18       29.86F
WENDOVER       CLEAR     41  17  38 W3        29.85F
HEBER CITY       N/A     45   9  23 S8        29.93F
WEST JORDAN    MOCLDY    49  20  32 S17       29.90F

$$

UTZ011>015-024>027-180300-

CENTRAL/NORTHEAST UTAH

CITY           SKY/WX    TMP DP  RH WIND       PRES   REMARKS
PROVO AIRPORT  PTCLDY    47  16  29 E5        29.95F
MOAB/CANYONLAN CLEAR     43  25  49 W3        30.02F
DELTA          CLEAR     48  18  29 S13       29.93F
PRICE          CLEAR     37  14  38 E8        30.04F WCI  31
RICHFIELD      CLEAR     52   9  17 W7        29.97F
ROOSEVELT      PTCLDY    41   9  26 W8        29.99R
VERNAL         CLEAR     33  12  41 NW5       29.97R WCI  29

$$

UTZ013>016-019>022-027-180300-

SOUTHERN UTAH

CITY           SKY/WX    TMP DP  RH WIND       PRES   REMARKS
BRYCE CANYON   CLEAR     36  19  50 SE12      30.12S WCI  28
CEDAR CITY     CLEAR     42  20  41 S10G18    30.04F
MILFORD        CLEAR     48  17  29 S21       29.99S
ST GEORGE      PTCLDY    54  32  43 CALM      30.07S
HANKSVILLE     CLEAR     46  14  27 SE5       30.04F
KANAB          CLEAR     45  25  45 CALM      30.13S
BLANDING         N/A     42  12  29 CALM      30.20R

$$

REGIONAL REPORTS     COLORADO/ARIZONA

CITY           SKY/WX    TMP DP  RH WIND       PRES   REMARKS
CRAIG, CO      CLEAR     34  11  38 W5        29.98F WCI  30
GRAND JUNCTION CLEAR     39  23  52 NW3       30.06S
RIFLE, CO      CLEAR     32  21  64 SE7       30.05S WCI  26
MONTROSE, CO   CLEAR     41  16  36 CALM      30.08R
CORTEZ, CO     CLEAR     32  13  45 E3        30.14S
COLORADO CITY    N/A     46  30  53 NW6       30.12S
PAGE, AZ       CLEAR     47  23  38 CALM      30.07S
GRAND CANYON   PTCLDY    34  25  69 CALM      30.16S
KINGMAN, AZ    PTCLDY    53  27  36 SW9       30.09S
FLAGSTAFF, AZ  PTCLDY    38  25  59 CALM      30.18S

$$

REGIONAL REPORTS    NEVADA/IDAHO/WYOMING

CITY           SKY/WX    TMP DP  RH WIND       PRES   REMARKS
LAS VEGAS, NV  PTCLDY    61  16  17 E3        30.03F
ELY, NY        CLEAR     43  11  27 S12       29.98F
ELKO, NV       CLEAR     45  20  36 SW12      29.88F
POCATELLO, ID  CLOUDY    45  21  38 S17       29.78F
BURLEY, ID     CLOUDY    49  26  41 SW12      29.75F
FORT BRIDGER,    N/A     40   5  23 SW23G31   29.90S WCI  30
EVANSTON, WY   CLEAR     36  11  35 SW16      29.89F WCI  26
ROCK SPRINGS,  PTCLDY    41  -1  17 SW13G25   29.87F

$$




USA.gov is the U.S. government's official web portal to all federal, state and local government web resources and services.